Location: Anumalkud?ru
(16.4847°N, 80.6636°E)
Time: 22:37:40
(UTC+00:00)

Atlas Centaur 2 - Pass Details

Date: 11 April 2026
Orbit: 456 x 1246 km, 30.4° (Epoch: 9 May)

Event Time Altitude Azimuth Distance (km) Brightness Sun altitude
Rises 15:38:09 0° 299° (WNW) 3,517 6.3 -38.9°
Reaches altitude 10° 15:40:34 10° 300° (WNW) 2,686 5.5 -39.4°
Enters shadow 15:44:12 37° 306° (NW) 1,558 3.8 -40.2°
